STARLINK-35224

Last updated on Mon Oct 20 2025 00:02:07 GMT+0000 (Coordinated Universal Time)

1 65811U 25218W 25292.26018946 .00101922 00000+0 18496-2 0 9999 2 65811 97.6026 152.8424 0001519 94.9349 265.2075 15.49218253 3643
UTC large
Height (km)
Speed (km/s)
/
Latitude / Longitude
Inclination (degrees)
Orbital Period (minutes)
Azimuth
Elevation
Range (km)
Doppler Factor

Next 0 passes for location: London (51.5072 / 0.1276)

Sorry there are no passes over London.